Weather History for Cairns Airport, Queensland

Change the Weather History Date:

Saturday, March 30, 2013

  Actual Average Record
Temperature  
Mean Temperature 78 °F -  
Max Temperature 86 °F 84 °F - ()
Min Temperature 71 °F 71 °F - ()
Cooling Degree Days 14    
Growing Degree Days 28 (Base 50)    
Moisture  
Dew Point 69 °F    
Average Humidity 74    
Maximum Humidity 94    
Minimum Humidity 46    
Precipitation  
Precipitation 0.12 in 0.29 in - ()
Sea Level Pressure  
Sea Level Pressure 29.89 in    
Wind  
Wind Speed 9 mph ()    
Max Wind Speed 17 mph    
Max Gust Speed -    
Visibility 6.8 miles    
Events Rain    
T = Trace of Precipitation, MM = Missing Value Source: Averaged Metar Reports

Daily Weather History Graph

Daily Weather History Graph

Search for Another Location

Airport:

Trip Planner

Search our weather history database for the weather conditions in past years. The results will help you decide how hot, cold, wet, or windy it might be!

Date:

Astronomy

Mar. 30, 2013 Rise Set
Actual Time 6:22 AM EST 6:20 PM EST
Civil Twilight 6:00 AM EST 6:41 PM EST
Nautical Twilight 5:35 AM EST 7:06 PM EST
Astronomical Twilight 5:10 AM EST 7:31 PM EST
Moon 8:34 PM EST (3/30) 8:48 AM EST (3/30)
Length of Visible Light 12h 40m
Length of Day
11h 57m
Waning Gibbous, 91% of the Moon is Illuminated
Mar 30
Waning Gibbous
Apr 3
Last Quarter
Apr 10
New
Apr 18
First Quarter
Apr 26
Full

Hourly Weather History & Observations

Time (EST) Temp. Heat Index Dew Point Humidity Pressure Visibility Wind Dir Wind Speed Gust Speed Precip Events Conditions
12:00 AM 74 °F - 69 °F 81% 29.93 in - SE 10.4 mph - -  
12:00 AM 73.4 °F - 69.8 °F 88% 29.92 in 6.2 mi SE 10.4 mph - N/A   Scattered Clouds
12:30 AM 73.4 °F - 69.8 °F 88% 29.92 in 6.2 mi SE 10.4 mph - N/A   Partly Cloudy
1:00 AM 76 °F - 68 °F 70% 29.91 in - South 5.8 mph - -  
1:00 AM 75.2 °F - 68.0 °F 78% 29.89 in 6.2 mi South 5.8 mph - N/A   Partly Cloudy
1:30 AM 75.2 °F - 68.0 °F 78% 29.89 in 6.2 mi South 8.1 mph - N/A   Partly Cloudy
2:00 AM 73.4 °F - 69.8 °F 88% 29.89 in 6.2 mi SE 13.8 mph - N/A   Partly Cloudy
2:30 AM 73.4 °F - 69.8 °F 88% 29.86 in 6.2 mi SSE 10.4 mph - N/A   Scattered Clouds
3:00 AM 73 °F - 69 °F 84% 29.88 in - SSE 11.5 mph - -  
3:00 AM 73.4 °F - 69.8 °F 88% 29.86 in 6.2 mi SSE 11.5 mph - N/A   Scattered Clouds
3:30 AM 73.4 °F - 69.8 °F 88% 29.86 in 6.2 mi South 11.5 mph - N/A   Mostly Cloudy
4:00 AM 75 °F - 67 °F 69% 29.87 in - South 15.0 mph - -  
4:00 AM 75.2 °F - 66.2 °F 73% 29.86 in 6.2 mi South 15.0 mph - N/A   Mostly Cloudy
4:30 AM 75.2 °F - 66.2 °F 73% 29.86 in 6.2 mi South 10.4 mph - N/A   Mostly Cloudy
5:00 AM 73.4 °F - 68.0 °F 83% 29.86 in 6.2 mi SSE 9.2 mph - N/A   Mostly Cloudy
5:30 AM 71.6 °F - 68.0 °F 88% 29.86 in 6.2 mi SSE 11.5 mph - N/A   Scattered Clouds
6:00 AM 72 °F - 68 °F 85% 29.88 in 19 mi SE 11.5 mph - -   Partly Cloudy
6:00 AM 71.6 °F - 68.0 °F 88% 29.86 in 6.2 mi SE 11.5 mph - N/A   Partly Cloudy
6:30 AM 71.6 °F - 68.0 °F 88% 29.89 in 6.2 mi SE 11.5 mph - N/A   Partly Cloudy
7:00 AM 72 °F - 69 °F 85% 29.90 in - SSE 10.4 mph - -  
7:00 AM 71.6 °F - 68.0 °F 88% 29.89 in 6.2 mi SSE 10.4 mph - N/A   Partly Cloudy
7:30 AM 75.2 °F - 69.8 °F 83% 29.89 in 6.2 mi SE 9.2 mph - N/A   Partly Cloudy
8:00 AM 78.8 °F - 68.0 °F 69% 29.89 in 6.2 mi SSE 6.9 mph - N/A   Partly Cloudy
8:30 AM 78.8 °F - 68.0 °F 69% 29.92 in 6.2 mi SE 10.4 mph - N/A   Scattered Clouds
9:00 AM 79 °F - 67 °F 58% 29.93 in 9 mi South 8.1 mph - -   Mostly Cloudy
9:00 AM 78.8 °F - 66.2 °F 65% 29.92 in 6.2 mi South 8.1 mph - N/A   Scattered Clouds
9:13 AM 75.2 °F - 71.6 °F 89% 29.95 in 3.7 mi ESE 15.0 mph - N/A Rain Light Rain Showers
9:30 AM 73.4 °F - 71.6 °F 94% 29.95 in 5.0 mi SSE 9.2 mph - N/A Rain Light Rain Showers
10:00 AM 76 °F - 70 °F 75% 29.95 in - SW 5.8 mph - -  
10:00 AM 75.2 °F - 69.8 °F 83% 29.95 in 6.2 mi SW 5.8 mph - N/A   Mostly Cloudy
10:30 AM 78.8 °F - 69.8 °F 74% 29.92 in 6.2 mi East 4.6 mph - N/A   Mostly Cloudy
11:00 AM 80.6 °F 83.9 °F 69.8 °F 70% 29.92 in 6.2 mi South 6.9 mph - N/A   Mostly Cloudy
11:30 AM 82.4 °F 85.4 °F 68.0 °F 62% 29.92 in 6.2 mi South 8.1 mph - N/A   Scattered Clouds
12:00 PM 83 °F - 69 °F 53% 29.90 in 19 mi SSW 6.9 mph - -   Partly Cloudy
12:00 PM 82.4 °F 85.4 °F 68.0 °F 62% 29.89 in 6.2 mi SSW 6.9 mph - N/A   Scattered Clouds
12:30 PM 84.2 °F 88.4 °F 69.8 °F 62% 29.86 in 6.2 mi South 5.8 mph - N/A   Scattered Clouds
1:00 PM 86 °F - 71 °F 52% 29.88 in - East 8.1 mph - -  
1:00 PM 86.0 °F 91.8 °F 71.6 °F 62% 29.86 in 6.2 mi East 8.1 mph - N/A   Partly Cloudy
1:30 PM 86.0 °F 89.4 °F 68.0 °F 55% 29.86 in 6.2 mi SE 6.9 mph - N/A   Partly Cloudy
2:00 PM 84.2 °F 87.3 °F 68.0 °F 58% 29.83 in 6.2 mi NE 10.4 mph - N/A   Partly Cloudy
2:30 PM 86.0 °F 88.2 °F 66.2 °F 51% 29.83 in 6.2 mi East 9.2 mph - N/A   Partly Cloudy
3:00 PM 85 °F - 67 °F 46% 29.83 in 19 mi East 10.4 mph - -   Partly Cloudy
3:00 PM 86.0 °F 89.4 °F 68.0 °F 55% 29.83 in 6.2 mi East 10.4 mph - N/A   Partly Cloudy
3:30 PM 86.0 °F 89.4 °F 68.0 °F 55% 29.80 in 6.2 mi East 11.5 mph - N/A   Scattered Clouds
4:00 PM 85 °F - 68 °F 47% 29.84 in - ESE 11.5 mph - -  
4:00 PM 84.2 °F 87.3 °F 68.0 °F 58% 29.83 in 6.2 mi ESE 11.5 mph - N/A   Scattered Clouds
4:30 PM 82.4 °F 85.4 °F 68.0 °F 62% 29.83 in 6.2 mi SE 17.3 mph - N/A   Mostly Cloudy
5:00 PM 80.6 °F 83.2 °F 68.0 °F 65% 29.83 in 6.2 mi SE 16.1 mph - N/A   Mostly Cloudy
5:30 PM 80.6 °F 83.2 °F 68.0 °F 65% 29.83 in 6.2 mi SSE 13.8 mph - N/A   Mostly Cloudy
6:00 PM 79 °F - 67 °F 60% 29.86 in - South 8.1 mph - -   Overcast
6:00 PM 78.8 °F - 68.0 °F 69% 29.86 in 6.2 mi South 8.1 mph - N/A   Mostly Cloudy
6:30 PM 78.8 °F - 68.0 °F 69% 29.86 in 6.2 mi South 8.1 mph - N/A   Mostly Cloudy
7:00 PM 78 °F - 69 °F 68% 29.88 in - South 9.2 mph - -  
7:00 PM 78.8 °F - 69.8 °F 74% 29.86 in 6.2 mi South 9.2 mph - N/A   Mostly Cloudy
7:30 PM 78.8 °F - 69.8 °F 74% 29.89 in 6.2 mi SSE 9.2 mph - N/A   Mostly Cloudy
8:00 PM 78.8 °F - 69.8 °F 74% 29.89 in 6.2 mi South 6.9 mph - N/A   Mostly Cloudy
8:30 PM 77.0 °F - 69.8 °F 78% 29.92 in 6.2 mi South 8.1 mph - N/A   Scattered Clouds
9:00 PM 77 °F - 69 °F 70% 29.93 in - South 8.1 mph - -  
9:00 PM 77.0 °F - 69.8 °F 78% 29.92 in 6.2 mi South 8.1 mph - N/A   Partly Cloudy
9:30 PM 77.0 °F - 69.8 °F 78% 29.92 in 3.7 mi ESE 11.5 mph - N/A Rain Light Rain Showers
10:00 PM 74 °F - 71 °F 88% 29.94 in - South 5.8 mph - -  
10:00 PM 73.4 °F - 71.6 °F 94% 29.92 in 6.2 mi South 5.8 mph - N/A   Mostly Cloudy
10:30 PM 75.2 °F - 73.4 °F 94% 29.92 in 3.7 mi East 8.1 mph - N/A Rain Light Rain Showers
11:00 PM 73.4 °F - 71.6 °F 94% 29.92 in 6.2 mi South 8.1 mph - N/A   Overcast
11:30 PM 75.2 °F - 69.8 °F 83% 29.92 in 6.2 mi South 9.2 mph - N/A   Scattered Clouds